Location: Unspecified
(0.0000°N, 0.0000°E)
Time: 01:15:31
(UTC+00:00)

DOVE 4 - Pass Details

Date: 14 December 2017
Orbit: 590 x 802 km, 97.7° (Epoch: 19 July)

Event Time Altitude Azimuth Distance (km) Brightness Sun altitude
Rises 04:06:57 0° 27° (NNE) 2,852 ? -24.6°
Reaches altitude 10° 04:09:19 10° 37° (NE) 1,933 ? -24.1°
Maximum altitude 04:13:03 32° 101° (ESE) 1,014 ? -23.2°
Drops below altitude 10° 04:16:45 10° 165° (SSE) 1,916 ? -22.4°
Sets 04:19:04 0° 175° (S) 2,823 ? -21.8°
